Location: San Antonio de Areco
(34.2500°S, 59.4670°W)
Time: 18:58:41
(UTC-03:00)

ISS - Visible Passes

Search period start: 04 August 2015 00:00
Search period end: 14 August 2015 00:00
Orbit: 401 x 403 km, 51.6° (Epoch: 04 August)

Date Brightness Start Highest point End Pass type
(mag) Time Alt. Az. Time Alt. Az. Time Alt. Az.
05 Aug -0.6 06:29:57 10° N 06:32:27 20° NE 06:35:02 10° ESE visible
06 Aug -3.3 07:12:23 10° WNW 07:15:39 61° SW 07:18:57 10° SE visible
07 Aug -2.7 06:20:46 23° NNW 06:22:37 57° NE 06:25:53 10° SE visible
08 Aug -0.6 05:30:52 20° E 05:30:52 20° E 05:32:27 10° ESE visible
08 Aug -2.1 07:03:32 12° W 07:06:02 25° SW 07:08:52 10° SSE visible
09 Aug -2.8 06:13:18 45° S 06:13:18 45° S 06:16:05 10° SE visible
10 Aug 0.0 05:22:51 11° SE 05:22:51 11° SE 05:23:03 10° SE visible
10 Aug -1.2 06:55:29 12° SW 06:56:32 14° SSW 06:58:17 10° S visible
11 Aug -1.0 06:04:50 16° S 06:04:50 16° S 06:05:52 10° SSE visible
